Temp_Advection
nan nan nan nan nan nan nan nan nan nan nan nan nan nan nan nan nan nan nan nan nan nan nan nan nan nan nan nan nan nan nan nan nan nan nan nan nan nan nan nan nan nan nan nan nan nan nan nan nan nan nan nan nan nan nan nan nan nan nan nan nan nan nan nan nan nan nan nan nan
nan 0 0 0 0 0 0 0 0 0 0 0 -0 0 0 0 0 1 1 0 0 0 0 1 1 1 1 0 -0 -0 1 1 1 1 1 1 1 1 0 -0 0 0 0 -0 -0 -1 -1 -1 -1 -0 1 3 4 3 1 -0 0 1 1 0 1 1 1 0 -0 -0 -0 0 nan
nan 0 0 0 0 1 1 0 0 -0 0 -0 -0 -0 -0 0 0 0 0 0 0 0 0 1 1 1 0 -0 0 0 0 0 1 1 1 1 1 1 1 0 0 -0 -0 -0 -1 -1 -1 -1 -0 1 2 3 3 2 0 -0 -0 1 1 0 1 1 1 -0 -1 -1 -1 -0 nan
nan -0 -0 0 0 1 1 1 0 0 0 -0 0 0 0 0 0 0 0 0 0 1 1 1 1 1 0 0 0 0 -0 0 1 1 0 -0 0 1 2 1 0 -0 -0 -0 -1 -1 -1 -1 -0 1 2 3 3 1 0 0 0 0 1 1 1 1 1 0 -1 -1 -1 -1 nan
nan -0 -0 -0 0 0 1 1 0 0 -0 0 0 0 -0 0 0 0 0 0 0 1 1 1 1 1 0 0 0 0 -0 0 1 0 -0 -0 0 1 2 2 1 1 -0 -0 -1 -1 -1 -1 -0 1 2 3 2 1 0 0 0 0 1 1 1 1 1 0 -1 -1 -1 -1 nan
nan -0 -0 -0 -0 0 0 0 1 0 0 0 0 -0 -0 0 0 -0 0 0 0 0 0 1 1 1 0 0 0 -0 -0 0 0 -0 -0 -0 1 2 2 1 1 0 -0 -0 -1 -1 -1 -1 0 1 2 2 2 1 0 1 1 1 1 1 1 1 1 0 -0 -1 -1 -1 nan
nan -0 -0 -0 -0 -0 -0 0 0 1 1 0 -0 -0 -0 0 -0 0 0 0 0 0 1 1 0 0 0 0 0 0 0 0 -0 -0 -0 1 2 2 1 1 0 -0 -0 -1 -1 -1 -1 0 1 1 1 2 2 1 -0 0 1 1 1 1 1 1 1 0 -0 -0 -1 -1 nan
nan -0 -0 -0 -1 -1 -1 -0 0 1 1 0 -0 -0 -0 -0 -0 0 0 0 0 1 1 1 0 0 1 0 0 0 0 0 -0 0 1 1 2 1 1 0 -0 -1 -1 -1 -1 -0 0 1 1 1 0 1 2 1 0 -0 0 1 1 1 1 1 1 1 0 -0 -1 -1 nan
nan -0 -0 -0 -1 -1 -1 -1 -0 0 1 0 0 0 -0 -0 0 0 1 1 1 1 1 0 0 1 1 0 0 -0 -0 1 1 1 1 1 1 1 0 -0 -1 -1 -1 -1 -0 0 1 1 1 0 -0 0 1 2 1 -0 -0 0 1 1 1 1 1 1 0 -0 -0 -0 nan
nan -0 -0 -1 -1 -1 -0 -1 -1 -0 0 1 1 0 0 0 0 1 1 1 1 1 1 0 1 1 1 0 -0 0 1 1 1 1 1 1 0 0 -0 -1 -1 -1 -1 -0 0 0 0 0 0 -0 -0 0 1 1 1 0 0 0 1 1 1 1 1 1 1 0 0 -0 nan
nan -0 -0 -1 -1 -1 -0 -0 -0 -0 0 1 1 1 1 1 1 1 1 1 1 1 1 0 0 1 1 0 1 1 1 1 1 1 1 0 0 -0 -0 -1 -1 -0 0 0 0 0 0 0 -0 -0 -0 0 1 1 1 1 0 0 1 1 1 2 2 1 1 1 0 -1 nan
nan -0 -0 -1 -1 -1 -1 -0 -0 -0 0 1 1 1 1 1 0 0 0 0 1 1 0 0 0 1 1 1 1 1 1 1 0 0 0 0 -0 -0 -0 -0 -0 0 0 0 0 0 0 -0 -0 -0 -0 0 0 1 1 1 1 1 1 1 1 2 2 2 1 1 -0 -1 nan
nan -0 -0 -0 -1 -1 -1 -1 -0 0 0 1 1 0 0 -0 -0 -0 -0 0 1 1 1 1 1 1 1 1 1 1 1 0 0 0 -0 -0 -0 -0 -0 0 0 0 0 1 1 1 0 -0 -0 -1 -1 -0 0 0 0 0 1 1 1 1 1 1 2 1 1 0 -0 -1 nan
nan 0 -0 -0 -1 -1 -1 -0 0 0 0 0 -0 -0 -1 -1 -0 -0 0 1 1 1 1 1 1 1 1 1 1 0 0 0 -0 -0 -0 -0 -0 -0 -0 0 0 0 0 0 0 1 1 0 -0 -1 -1 -1 -0 0 0 1 1 1 1 1 1 2 2 1 1 -0 -0 -0 nan
nan -0 -0 -1 -1 -1 -0 0 0 0 -0 -1 -0 -1 -1 -0 0 1 1 2 2 1 1 2 2 1 1 0 0 -0 -0 -0 -0 -0 0 -0 -0 -0 -0 0 0 0 0 0 0 1 1 1 0 -1 -1 -2 -1 0 1 1 1 1 1 1 1 2 1 1 0 0 -0 0 nan
nan -0 -0 -1 -1 -0 0 0 0 -0 -1 -0 -0 -0 -0 0 1 1 2 2 2 1 1 1 1 0 0 -0 -0 -0 -0 -0 0 0 0 -0 -0 -0 -0 0 0 0 0 0 0 0 1 1 0 -0 -1 -2 -2 -0 2 2 2 1 1 1 1 1 1 0 0 0 0 0 nan
nan -0 -0 -0 -0 0 0 0 -0 -1 -1 -1 -0 -0 0 1 1 1 1 1 1 1 0 0 0 -0 -0 -0 -0 -0 -0 -0 -0 -0 -0 -0 -0 0 0 0 0 0 0 0 0 0 0 1 0 0 -0 -1 -1 -1 1 2 2 1 1 1 1 0 -0 -0 0 1 1 1 nan
nan -0 -0 -0 0 0 0 -0 -1 -1 -1 -0 -0 0 1 1 1 1 1 0 0 0 0 0 0 0 0 -0 -0 -0 -0 -0 -0 -0 -0 -0 -0 0 0 0 0 -0 -0 -0 -0 0 0 0 0 0 0 -0 -0 -1 -0 0 1 2 2 1 0 -0 -1 -0 1 1 1 1 nan
nan -0 0 0 0 0 -0 -1 -1 -1 -0 0 0 1 1 1 1 0 0 0 0 0 0 0 0 0 -0 -0 -0 -0 0 -0 -0 -0 -0 -0 -0 -0 -0 -0 -0 -0 -0 -0 -0 -0 0 0 0 0 0 0 0 -0 -1 -1 0 1 2 1 0 -1 -1 -0 1 2 1 1 nan
nan -0 -0 -0 -0 -0 -0 -0 -0 -0 0 0 0 0 0 0 0 0 0 0 0 0 0 0 0 0 0 0 0 -0 -0 -0 -0 -0 -0 -0 -0 -0 -0 -0 -0 -0 -0 -0 -0 -0 -0 0 0 0 0 0 0 0 -0 -1 -0 1 2 1 0 -0 -0 0 1 1 1 1 nan
nan -0 -0 -0 -0 0 0 -0 0 0 0 0 0 0 0 0 0 0 0 0 0 0 -0 0 0 0 0 0 0 -0 -0 -0 -0 -0 -0 -0 -0 0 -0 -0 -0 -0 -0 -0 -0 -0 -0 -0 -0 0 1 0 0 0 0 -0 -0 0 1 1 0 -0 -0 0 1 1 1 1 nan
nan -0 0 0 0 0 0 0 0 0 0 -0 -0 0 0 0 0 0 0 0 -0 -0 -0 -0 -0 -0 -0 0 0 0 -0 -0 -0 -0 -0 -0 -0 -0 0 -0 -0 0 0 -0 -0 -0 -0 -0 -0 0 1 1 0 0 0 0 0 0 1 0 -0 -0 -0 0 0 1 1 0 nan
nan 0 0 0 0 0 0 0 -0 -0 -0 -0 -0 0 0 0 0 0 0 0 0 -0 -0 -0 -0 -0 0 0 0 0 0 0 0 0 0 0 -0 -0 -0 -0 -0 -0 0 0 0 -0 -0 -1 -1 -0 0 1 1 0 0 0 0 1 1 0 -0 -0 -0 0 0 0 0 0 nan
nan 0 0 0 0 0 -0 -0 -0 -0 -0 0 0 0 0 0 0 0 0 0 0 0 0 0 0 0 0 0 0 0 0 0 0 0 0 0 0 0 -0 -0 -0 -0 -0 0 0 0 -0 -0 -1 -1 -0 0 1 1 0 1 1 1 1 0 -0 -0 -0 0 0 0 0 0 nan
nan 0 0 0 0 0 -0 -0 -0 -0 0 0 0 0 0 0 0 0 0 0 0 0 0 0 0 -0 -0 -0 0 0 0 0 0 0 0 1 0 0 0 -0 -0 -0 -0 -0 0 0 0 0 -0 -1 -0 -0 0 0 0 1 1 1 0 -0 -0 -0 0 0 0 0 0 0 nan
nan 0 0 0 0 0 0 0 0 0 0 0 0 0 0 0 0 0 0 0 0 0 0 0 0 0 -0 -0 -0 -0 -0 -0 -0 -0 0 0 0 0 0 0 -0 -0 -0 -0 -0 0 1 1 0 -0 -0 -0 0 0 0 1 1 1 0 -0 -0 0 0 0 0 0 0 0 nan
nan -0 -0 0 -0 -0 0 -0 0 0 0 0 0 0 0 0 0 -0 -0 -0 -0 -0 -0 -0 -0 -0 -0 -0 -0 -0 -0 -0 -0 -0 -0 -0 0 0 0 0 0 -0 -0 -1 -1 0 1 1 0 0 0 0 0 0 0 1 1 0 0 0 0 0 0 0 0 0 0 0 nan
nan 0 -0 -0 -0 -0 -0 -0 -0 -0 -0 -0 0 0 0 -0 -0 -0 -0 -0 -0 -0 -0 -0 -0 -0 -0 -0 -0 -0 -0 -0 -0 -0 -0 -0 -0 -0 -0 -0 0 0 -0 -0 -0 -0 1 1 1 0 0 0 0 0 0 0 0 0 0 0 0 0 0 0 0 0 0 0 nan
nan 0 0 -0 -0 -0 -0 -0 -0 -0 -0 -0 -0 -0 -0 -0 -0 -0 -0 -0 -0 -0 -0 -0 -0 -0 -0 -0 -0 -0 -0 -0 0 0 -0 -0 -0 -0 -0 -0 -0 -0 -0 -0 0 0 1 1 1 0 0 0 0 0 0 0 0 0 0 0 0 0 0 0 0 0 0 0 nan
nan -0 -0 -0 -0 -0 -0 -0 -0 -0 -0 -0 -0 -0 -0 -0 -0 -0 -0 -0 -0 -0 -0 -0 -0 -0 -0 -0 -0 -0 -0 0 0 -0 -0 -0 -0 -0 -0 -0 -0 -0 0 0 0 0 1 1 0 0 0 0 0 0 0 0 0 0 0 0 0 0 0 0 0 0 0 0 nan
nan -0 -0 -0 -0 -0 -0 -0 -0 -0 -0 -0 -0 -0 -0 -0 -0 -0 -0 -0 -0 -0 -0 -0 -0 -0 -0 -0 -0 -0 0 -0 -0 -0 -0 -0 -0 -0 -0 -0 -0 -0 0 0 0 0 0 0 0 0 0 0 0 0 0 0 0 0 0 0 0 0 0 0 0 0 0 0 nan
nan -0 -0 -0 -0 -0 -0 -0 -0 -0 -0 -0 -0 -0 -0 -0 -0 -0 -0 -0 -0 -0 -0 -0 -0 -0 -0 -0 -0 -0 -0 -0 -0 -0 -0 -0 -0 -0 -0 -0 -0 -0 0 0 0 0 0 0 0 0 0 0 0 0 0 0 0 0 0 0 0 0 0 0 0 0 0 0 nan
nan -0 -0 -0 -0 -0 -0 -0 -0 -0 -0 -0 -0 -0 -0 -0 -0 -0 -0 -0 -0 -0 -0 -0 -0 -0 -0 -0 -0 -0 -0 -0 -0 -0 -0 -0 -0 -0 -0 -0 -0 0 0 0 0 0 0 0 0 0 0 0 0 0 0 0 0 0 0 0 0 0 0 0 0 0 0 0 nan
nan -0 -0 -0 -0 -0 -0 -0 -0 -0 -0 -0 -0 -0 -0 -0 -0 -0 -0 -0 -0 -0 -0 -0 -0 -0 -0 -0 -0 -0 -0 -0 -0 -0 -0 -0 -0 -0 -0 -0 -0 0 0 0 0 0 0 0 0 0 0 0 0 0 0 0 0 0 0 0 0 0 0 0 0 0 0 0 nan
nan -0 -0 -0 -0 -0 -0 -0 -0 0 0 0 0 -0 -0 0 0 -0 -0 -0 -0 -0 -0 -0 -0 -0 -0 -0 -0 -0 -0 -0 -0 -0 -0 -0 -0 -0 -0 -0 -0 0 0 0 0 0 -0 0 0 0 0 0 0 0 0 0 0 -0 -0 -0 -0 -0 0 0 0 0 0 0 nan
nan -0 -0 -0 -0 -0 -0 0 0 0 0 0 0 0 0 0 0 0 0 -0 -0 0 0 -0 -0 -0 -0 -0 -0 -0 -0 -0 -0 -0 -0 0 -0 -0 -0 -0 -0 -0 0 0 0 -0 0 0 0 0 0 0 0 0 -0 -0 -0 -0 -0 -0 -0 -0 -0 0 0 0 0 0 nan
nan -0 -0 -0 -0 -0 0 0 0 0 0 0 0 0 0 0 0 0 0 -0 0 0 -0 -0 -0 -0 -0 -0 -0 -0 -0 0 0 0 0 0 0 -0 -0 -0 -0 -0 0 0 0 0 0 0 0 0 -0 -0 -0 -0 -0 -0 -0 -0 0 0 -0 -0 -0 0 0 -0 0 0 nan
nan -0 -0 0 0 -0 0 0 0 0 0 0 0 0 0 0 0 0 -0 0 0 -0 -0 -0 -0 -0 -0 -0 -0 -0 0 0 0 0 -0 -0 -0 -0 -0 -0 -0 -0 -0 -0 0 0 0 -0 -0 -0 -0 -0 -0 -0 -0 -0 0 0 0 -0 -0 -0 0 -0 -0 0 -0 -0 nan
nan 0 0 -0 -0 -0 -0 -0 0 0 0 0 0 0 0 0 0 0 0 0 0 -0 -0 -0 -0 -0 -0 -0 -0 0 0 0 0 0 -0 -0 -0 0 0 -0 -0 -0 -0 -0 -0 -0 -0 -0 -0 -0 -0 -0 -0 -0 0 0 0 -0 -0 -0 -0 -0 0 -0 -0 -0 0 -0 nan
nan 0 0 -0 -0 -0 -0 -0 -0 0 0 0 0 0 0 0 0 0 -0 -0 -0 -0 -0 -0 -1 -1 -0 -1 -1 -1 -0 -0 0 0 0 -0 -0 -0 0 0 0 -0 -0 -0 -0 -0 -0 -0 -0 -0 -0 0 0 0 0 -0 -0 -0 -0 0 -0 -0 -0 -0 -0 -0 0 0 nan
nan nan nan nan nan nan nan nan nan nan nan nan nan nan nan nan nan nan nan nan nan nan nan nan nan nan nan nan nan nan nan nan nan nan nan nan nan nan nan nan nan nan nan nan nan nan nan nan nan nan nan nan nan nan nan nan nan nan nan nan nan nan nan nan nan nan nan nan nan
Wind_Speed
27 30 30 29 27 24 22 22 23 24 25 25 24 24 25 27 27 26 26 25 25 25 25 26 27 28 29 30 31 31 30 29 29 28 26 26 27 29 31 33 34 35 35 36 36 36 37 37 38 38 39 39 39 39 40 40 40 41 42 42 44 45 46 47 47 46 45 45 46
25 28 30 31 30 27 25 23 22 23 24 25 25 24 24 25 25 25 25 25 25 25 25 26 27 28 29 30 31 31 30 30 29 28 26 27 29 30 32 34 35 36 36 37 37 37 38 38 38 39 39 39 39 39 40 40 39 39 40 40 42 43 44 45 46 46 45 45 46
23 25 27 29 31 30 27 24 23 22 23 24 25 25 24 24 24 24 24 24 24 24 25 26 26 27 28 29 30 30 30 30 30 28 28 29 31 32 33 34 35 36 37 37 37 37 37 37 39 39 39 38 38 39 39 38 37 37 38 38 39 40 41 42 42 43 44 45 45
21 23 24 27 29 30 29 27 24 22 21 22 23 24 24 24 24 23 23 24 23 23 23 24 25 26 26 26 27 27 28 29 28 28 29 31 33 34 34 34 35 36 36 36 36 36 36 37 38 39 38 36 36 37 37 36 35 35 36 36 37 37 38 38 38 39 41 43 44
18 20 21 23 26 28 29 28 26 23 20 20 20 21 21 22 22 22 22 22 22 22 22 23 24 23 22 22 23 25 26 27 27 28 30 31 32 32 33 33 33 33 33 33 33 33 34 35 37 38 36 34 34 35 35 34 33 33 34 34 34 35 35 35 35 36 38 40 42
15 17 18 20 22 24 26 28 27 25 22 19 18 19 20 20 20 20 20 20 20 20 20 20 21 21 21 22 23 25 26 27 28 28 29 30 30 30 30 31 30 30 30 30 30 30 32 34 36 36 34 32 33 35 35 34 33 33 33 33 33 33 33 34 34 34 35 37 39
16 15 16 17 18 20 22 24 26 26 24 21 19 19 19 19 19 19 19 20 20 19 18 18 19 20 22 23 24 25 27 28 28 29 29 30 29 29 28 28 27 27 27 27 28 29 31 33 35 34 32 30 32 34 35 35 35 34 34 34 33 33 33 33 33 33 33 34 36
17 16 15 16 16 17 18 20 23 24 25 23 21 19 19 19 19 19 19 19 19 18 18 19 20 22 24 25 25 26 27 28 29 30 30 29 28 27 25 24 23 24 25 26 28 29 31 32 33 32 30 29 31 33 35 36 36 36 36 35 34 32 32 32 32 32 32 32 34
18 17 17 16 16 16 16 17 18 20 22 23 22 20 19 18 18 19 19 18 17 17 19 20 22 24 26 27 27 28 28 29 30 30 29 28 26 23 21 20 20 22 25 27 29 30 31 31 31 30 29 28 30 33 36 37 38 39 38 36 33 31 31 31 31 31 31 31 32
20 19 18 18 17 16 15 15 15 17 19 20 21 19 18 17 17 18 18 17 17 18 19 21 23 25 27 28 28 29 29 28 28 28 27 25 22 19 18 18 20 24 27 28 29 29 29 29 28 28 28 28 30 33 36 38 40 40 38 35 31 29 29 30 30 30 30 29 29
20 20 19 19 18 18 16 15 14 14 15 17 17 16 15 15 16 17 17 18 18 19 21 23 25 26 27 28 28 27 26 26 25 24 21 19 17 17 18 19 22 25 27 28 27 27 27 27 26 27 27 28 29 31 34 37 40 41 38 33 29 28 28 28 29 29 28 27 27
20 20 20 20 20 19 18 16 15 14 12 11 12 12 14 17 18 19 20 21 21 21 22 25 26 27 28 27 26 25 23 21 19 17 16 15 16 16 18 20 22 24 25 25 25 25 25 26 26 26 26 26 28 30 33 36 39 38 33 29 26 26 26 27 28 28 28 27 26
19 19 19 19 19 19 19 17 15 11 8 8 11 14 17 20 22 22 23 24 25 25 26 27 27 28 27 26 23 20 18 16 14 14 14 15 16 17 19 21 22 23 23 23 23 23 24 25 25 26 26 26 27 29 32 35 35 32 28 25 24 24 26 27 28 28 28 28 28
18 18 17 17 18 18 17 15 10 7 8 11 15 18 20 22 23 24 26 27 27 28 28 28 27 26 24 21 17 15 14 14 14 14 14 15 16 18 19 20 21 21 21 21 21 22 23 24 25 26 26 27 28 30 32 32 30 26 24 22 22 23 25 27 28 29 29 28 29
15 15 15 16 16 14 12 8 7 10 13 15 17 19 20 21 23 24 25 27 27 27 26 25 22 19 16 14 13 13 13 13 14 14 14 15 16 17 18 18 19 19 20 20 21 21 21 22 23 24 25 27 29 31 32 30 25 21 19 18 20 22 24 26 27 28 28 29 29
12 12 12 12 10 7 6 8 12 14 15 16 17 19 20 21 22 22 23 22 21 20 18 16 13 12 11 11 11 12 13 13 13 13 13 13 14 15 16 17 18 19 19 20 20 19 19 20 20 22 23 24 26 28 29 26 23 21 20 20 20 21 23 24 25 27 28 29 29
9 8 8 7 5 5 8 12 14 14 15 16 17 18 19 19 19 18 17 14 11 9 9 9 9 10 10 10 10 11 11 11 11 11 11 11 12 14 15 17 18 19 19 18 18 18 17 18 19 20 20 20 20 20 20 18 19 21 22 23 22 21 21 21 23 25 27 27 27
6 6 5 5 5 8 11 12 13 14 14 15 15 15 15 14 13 11 9 7 5 5 6 7 8 8 8 8 8 9 9 9 9 10 10 11 13 14 16 17 17 17 17 17 16 16 16 17 17 18 18 17 15 14 12 13 15 19 22 22 22 21 19 19 20 23 24 25 24
3 4 5 7 8 10 11 12 12 13 13 12 11 10 8 7 6 5 4 5 5 6 6 6 6 6 6 6 6 7 8 8 9 10 10 11 12 13 14 15 15 15 15 15 15 15 15 15 16 16 16 16 15 14 13 13 14 17 20 21 21 20 18 17 18 20 21 21 20
3 4 6 8 9 10 10 10 10 10 9 7 5 3 3 3 4 5 5 6 6 7 7 6 6 5 4 4 5 5 6 7 7 8 9 9 10 11 11 12 13 13 13 14 14 13 13 13 13 13 14 15 16 16 16 16 14 15 17 19 19 17 16 15 16 16 17 16 15
4 5 5 6 7 7 7 7 6 4 3 3 4 5 5 4 4 5 6 6 6 7 7 7 6 5 4 3 3 3 4 5 6 6 6 7 8 9 10 10 11 12 12 12 12 11 10 10 10 12 13 14 15 16 17 17 15 15 15 16 16 14 13 12 12 12 13 12 11
3 3 3 4 4 4 3 2 2 3 5 6 7 6 5 5 4 4 4 4 5 5 6 6 5 4 4 3 2 3 4 5 5 6 6 6 7 8 9 9 10 11 11 10 10 8 8 8 10 12 14 15 15 16 17 17 16 16 16 15 14 12 10 9 9 10 10 10 9
0 2 3 3 3 2 2 3 5 6 7 7 7 6 5 5 5 4 4 4 4 4 4 3 3 3 3 3 3 3 4 6 6 6 6 6 7 7 8 8 9 9 10 9 9 8 7 7 9 11 13 15 15 16 16 17 17 17 16 14 12 9 8 7 8 9 9 9 9
2 3 4 4 4 4 5 5 6 7 7 7 7 7 6 6 6 5 5 4 4 3 3 2 2 1 1 1 2 3 4 6 7 7 7 7 7 7 7 7 8 8 8 9 8 8 7 7 8 9 10 12 14 14 15 16 16 15 14 12 10 8 7 7 8 9 9 9 9
4 5 5 5 5 5 6 6 7 7 8 8 9 9 9 8 8 7 7 6 6 5 4 3 2 2 1 1 2 3 4 5 6 7 8 8 7 7 7 7 7 7 7 8 8 7 7 6 6 6 6 8 9 10 11 12 13 12 11 9 8 8 8 8 9 9 9 9 9
5 5 5 6 6 6 7 7 8 8 8 9 9 9 9 9 8 8 8 7 7 6 5 5 4 3 3 3 3 4 4 5 5 6 7 7 7 6 6 6 6 6 6 6 7 7 7 6 6 5 5 5 6 6 7 8 9 9 9 9 8 8 8 8 8 8 8 8 8
5 5 6 6 7 7 7 7 7 7 7 7 7 7 8 8 7 7 7 7 7 7 6 5 5 5 5 4 4 4 4 5 5 5 5 5 5 5 5 5 5 5 5 5 6 7 7 6 6 5 5 5 5 5 6 7 9 9 9 9 8 8 7 7 6 6 6 6 7
5 6 6 6 6 7 7 6 6 6 6 6 7 7 7 7 8 8 8 8 8 7 7 6 6 6 6 5 5 5 5 5 4 4 3 3 3 3 3 3 3 4 4 4 6 7 6 5 5 4 4 4 5 5 7 8 9 10 10 9 8 7 6 5 5 5 5 6 7
6 6 6 6 6 5 5 5 5 6 6 6 7 8 8 8 8 8 8 9 8 8 7 7 6 6 6 6 6 5 5 5 4 2 1 1 1 2 2 2 1 2 2 2 3 4 4 4 4 4 4 4 5 6 7 8 8 8 8 7 6 5 5 5 5 5 6 7 8
5 5 5 5 5 5 5 5 6 6 6 7 7 8 8 8 8 8 8 8 8 8 7 6 6 6 5 5 5 5 5 4 2 1 2 2 2 2 2 2 1 1 0 1 2 2 3 4 4 5 5 5 5 5 6 6 5 5 5 5 5 4 5 5 5 6 7 7 8
3 3 3 4 5 5 5 6 6 6 7 7 8 8 8 8 8 8 8 8 7 6 5 4 4 4 3 3 3 3 2 1 1 3 3 3 3 3 3 3 2 2 3 2 2 3 3 4 4 5 5 4 4 3 3 3 3 4 4 4 5 5 5 6 6 7 7 8 8
2 3 4 5 5 6 6 6 6 6 6 7 7 7 7 7 7 7 6 6 5 4 3 2 2 2 2 2 1 1 1 2 3 4 4 4 4 4 4 4 5 5 5 5 4 4 3 3 4 4 3 3 3 2 2 2 3 4 4 5 6 6 6 7 7 7 7 7 7
2 3 4 5 5 5 5 5 5 5 6 6 6 6 6 6 5 5 4 3 2 2 2 2 1 1 1 2 2 3 3 4 4 4 4 5 4 5 5 7 8 8 7 6 4 3 3 3 3 3 3 3 3 3 3 4 4 5 5 6 6 6 7 7 6 6 6 6 6
2 3 4 5 5 5 5 5 5 4 4 4 4 4 4 4 4 3 2 2 1 1 2 2 2 2 2 2 3 4 4 4 4 4 5 5 5 6 7 9 9 8 6 5 3 2 2 2 3 3 3 4 4 4 4 5 5 6 6 6 6 6 6 6 5 5 5 5 6
2 3 4 5 5 5 5 5 4 4 3 3 3 2 2 2 1 1 1 1 1 1 1 1 1 2 2 3 4 5 4 4 4 5 5 6 6 7 9 10 9 7 6 4 3 2 2 2 3 3 3 4 4 5 5 5 6 6 6 6 5 5 5 5 5 5 5 6 6
3 3 4 5 5 4 4 4 3 3 3 3 3 2 2 1 1 1 0 0 0 0 0 0 1 3 4 5 5 5 5 5 6 6 7 7 7 9 9 9 9 7 5 3 2 2 2 3 3 3 3 4 4 5 5 5 5 5 5 4 4 4 4 5 5 6 6 7 8
3 4 4 4 3 3 3 4 4 4 4 4 3 3 2 2 2 1 1 1 1 1 1 2 3 4 5 6 6 7 7 7 8 9 9 8 8 8 8 8 7 6 5 3 3 3 3 3 3 3 3 4 4 4 4 4 4 3 3 3 4 5 5 6 7 7 8 8 8
3 3 2 2 2 3 3 4 4 5 5 4 4 3 3 2 2 2 2 2 2 2 3 4 5 7 7 8 9 9 9 9 9 10 10 9 8 7 6 6 6 5 4 4 3 3 3 3 3 3 3 3 3 3 3 2 2 3 4 4 5 6 7 7 8 8 8 8 8
3 2 2 2 3 3 3 4 4 4 5 4 4 3 3 3 3 3 4 4 4 4 5 7 9 10 11 11 12 12 12 11 10 9 8 7 6 5 4 4 4 5 4 4 3 3 2 2 2 2 2 2 2 2 2 3 4 4 5 6 7 8 8 8 8 8 7 7 7
2 2 2 3 3 3 3 3 3 4 4 4 4 4 4 3 4 4 4 4 5 5 6 8 10 11 12 13 13 13 13 11 10 8 7 6 5 4 4 3 4 4 4 3 3 2 1 1 1 1 1 2 2 3 4 4 5 6 7 7 7 7 7 7 6 6 5 6 6
3 3 3 4 4 3 3 3 3 3 3 4 4 4 4 4 4 4 4 5 5 5 6 7 9 10 11 11 11 11 11 10 8 7 6 5 5 4 4 3 3 3 2 2 2 1 0 0 1 2 2 3 4 4 5 6 6 6 6 6 6 5 4 4 4 5 5 6 6
Wind_Direction
245 241 238 236 234 235 236 237 237 237 237 237 237 238 240 242 243 243 243 242 242 244 245 246 247 249 250 251 252 253 254 254 254 253 252 252 252 253 254 256 259 260 261 262 263 264 266 269 272 272 271 269 266 265 265 265 264 263 262 262 261 259 258 257 256 255 253 251 252
250 247 243 240 237 235 235 236 237 238 238 237 236 236 238 240 242 243 244 245 245 246 246 246 247 248 250 251 253 254 255 256 256 255 254 253 253 253 254 257 259 261 263 265 268 271 274 276 276 274 272 270 267 266 266 266 265 264 263 263 263 262 261 260 260 258 256 253 251
254 251 248 244 241 239 237 237 238 239 239 240 239 238 238 240 241 243 245 247 248 249 249 249 249 249 251 252 255 257 258 259 259 257 255 253 254 254 255 258 260 264 267 270 273 276 277 278 277 275 272 270 267 267 268 270 269 267 265 264 264 263 262 261 262 261 259 256 254
255 253 251 248 245 242 239 238 239 240 241 241 242 241 241 240 241 242 244 247 248 248 248 249 250 250 252 254 257 259 260 261 260 258 256 255 257 259 260 262 265 269 273 275 277 278 279 279 277 275 273 270 267 269 273 275 274 272 270 268 266 265 263 262 262 261 260 259 256
256 254 253 251 249 246 243 240 238 239 240 242 242 242 241 242 241 241 243 244 245 245 246 249 251 252 252 254 255 256 258 259 259 258 258 260 263 265 267 269 272 275 277 278 278 279 279 279 277 276 273 270 266 267 272 276 277 277 276 274 271 269 266 264 262 261 260 258 257
258 256 255 253 252 250 247 243 240 238 238 240 241 241 242 242 241 241 242 242 243 244 246 248 250 251 251 251 251 253 255 257 259 261 263 266 269 272 274 276 278 279 279 279 279 280 280 280 278 276 272 268 263 264 267 272 275 278 279 279 276 273 270 267 264 262 260 258 257
263 261 259 257 255 253 251 247 243 239 237 238 240 242 242 242 242 243 244 245 247 246 244 242 242 244 245 247 249 252 255 258 261 264 268 272 275 278 279 280 281 281 281 281 282 282 282 280 277 274 270 264 260 260 264 268 272 275 278 279 277 274 271 268 265 262 260 258 257
271 269 266 263 260 257 255 252 248 243 240 238 240 241 242 242 243 245 245 245 246 243 238 236 236 239 242 245 248 253 257 260 264 268 273 277 281 283 284 283 283 284 284 285 285 284 283 280 277 273 268 261 257 258 262 266 269 273 275 277 277 274 271 268 264 261 258 257 256
275 275 273 270 266 263 260 257 253 248 243 239 239 240 242 243 244 245 244 241 238 236 235 235 238 241 243 247 250 255 259 264 267 272 276 281 284 286 286 287 288 288 288 288 287 285 282 279 276 273 268 261 257 257 260 264 267 270 273 275 276 274 271 267 262 258 255 254 253
275 276 277 276 274 271 267 264 260 254 247 241 238 238 241 244 244 242 239 235 231 230 233 238 242 244 247 250 254 258 262 266 271 275 278 281 284 287 289 291 292 292 290 288 286 284 282 279 276 273 268 263 258 257 260 262 265 268 271 273 273 272 269 264 259 255 251 250 250
274 275 276 277 277 276 273 271 268 263 256 247 239 238 240 242 238 235 231 228 228 230 234 239 243 247 250 253 256 260 265 270 274 277 280 284 286 289 291 293 293 292 290 288 286 284 282 279 276 272 268 264 261 260 261 262 264 266 268 270 270 268 264 260 255 250 247 246 249
276 275 276 277 277 277 276 276 276 274 267 255 239 232 232 230 227 226 227 229 230 231 234 240 244 248 251 255 260 265 271 276 280 284 287 291 292 292 292 292 292 291 290 289 288 285 282 278 276 273 271 268 266 265 265 264 264 264 265 266 266 263 259 254 250 246 244 245 247
280 279 278 278 277 277 278 280 281 280 268 242 223 220 223 225 225 227 229 231 233 234 237 241 244 249 254 259 266 273 280 285 290 293 295 295 293 292 291 290 291 291 292 291 289 286 283 279 277 276 275 274 273 272 270 268 266 265 265 265 263 260 255 250 246 244 244 245 246
283 282 281 279 278 279 282 283 279 259 228 220 219 222 226 229 231 232 233 234 235 237 239 243 247 252 259 267 274 284 291 293 295 295 294 293 291 290 291 291 292 293 294 293 291 289 285 281 278 277 277 277 276 275 272 270 269 267 266 265 262 257 251 247 245 244 245 245 246
285 283 281 280 281 284 284 270 239 223 223 227 230 234 238 240 241 240 239 238 239 241 244 247 253 259 268 278 284 288 291 291 291 291 290 289 289 290 292 293 294 294 294 294 294 292 289 284 278 276 275 275 274 271 269 269 267 265 263 261 257 252 248 246 246 246 246 247 247
284 282 282 284 287 286 264 234 227 230 238 244 248 250 251 251 250 248 246 244 245 247 250 256 263 270 277 281 284 285 285 285 286 287 287 286 288 290 292 293 294 294 295 296 296 295 291 285 278 274 272 271 269 266 266 269 265 261 258 256 252 249 247 247 249 249 250 250 250
283 284 285 287 283 253 231 231 236 245 253 259 261 261 258 256 255 254 252 250 251 254 259 265 269 272 274 275 276 278 281 283 285 286 286 285 286 288 290 292 293 294 296 297 297 295 290 283 277 273 270 268 264 264 266 271 266 261 257 254 251 249 251 254 256 255 254 253 253
285 279 269 254 245 234 231 236 246 255 262 265 265 263 259 255 254 253 252 249 247 247 250 255 259 262 265 268 270 274 279 284 286 286 286 286 287 290 292 295 296 297 297 297 297 295 290 284 279 275 271 268 265 264 267 272 271 266 260 255 251 251 256 263 264 261 257 255 255
281 261 238 222 224 229 236 244 253 260 264 265 263 258 251 244 239 230 219 216 220 222 225 232 239 246 253 262 269 273 278 284 287 290 291 293 295 298 300 301 301 300 299 298 297 296 293 288 284 279 276 273 272 271 271 273 277 272 264 257 253 254 261 269 269 264 259 256 255
251 243 237 230 229 233 240 249 256 261 261 254 243 220 188 174 187 190 187 188 201 209 212 211 215 224 238 252 265 276 284 288 294 297 300 302 305 307 308 307 306 305 303 300 299 297 295 293 292 290 287 284 281 278 277 276 279 275 267 259 256 260 267 273 270 264 258 254 251
247 245 243 239 237 238 242 247 251 244 218 168 135 125 128 142 164 176 180 183 192 199 202 201 202 206 216 234 262 291 303 302 305 308 310 310 313 314 315 314 314 312 309 306 303 302 302 306 309 308 303 296 289 283 280 278 277 275 270 264 265 270 276 277 270 262 254 248 243
263 245 231 227 225 225 224 212 160 123 112 109 108 112 119 126 135 148 160 171 180 186 191 193 195 200 210 230 265 307 323 324 324 323 321 319 320 321 322 323 323 322 320 317 316 317 322 326 325 320 313 304 295 288 284 282 279 276 272 270 271 277 282 279 270 259 249 240 233
233 192 188 181 171 156 130 109 102 99 100 104 108 111 114 115 117 121 128 138 152 166 176 183 189 202 220 244 272 307 327 335 337 335 332 331 330 329 328 328 328 328 328 329 331 335 339 341 337 329 320 313 306 299 294 289 283 277 271 268 267 271 275 271 259 248 239 232 227
128 137 136 130 119 107 99 96 98 100 103 105 105 103 101 99 98 98 104 113 125 137 148 155 162 179 225 278 301 319 330 337 338 338 337 336 336 335 332 329 329 329 331 333 335 336 339 342 343 335 325 317 310 305 298 291 283 274 266 259 255 253 252 247 239 233 227 224 222
129 127 124 117 111 106 104 104 104 104 102 98 94 93 91 88 86 86 90 98 105 111 115 115 106 91 62 32 8 351 341 337 335 335 335 337 338 337 334 331 328 328 331 335 334 331 329 331 333 330 319 308 303 298 292 284 274 263 253 244 238 234 230 226 222 219 217 218 219
139 134 129 125 121 119 117 113 109 104 99 94 91 89 87 83 80 78 78 80 85 90 93 92 85 71 54 41 26 11 357 346 336 332 330 332 335 337 337 334 330 328 330 333 330 324 318 314 310 304 294 283 278 277 273 266 252 241 231 226 223 220 216 212 209 208 209 212 216
146 140 133 128 126 121 116 111 105 98 93 88 83 79 73 67 62 58 57 57 57 59 61 62 60 52 43 34 28 17 4 352 340 331 325 326 332 339 343 341 332 326 322 318 308 302 299 297 293 283 270 258 253 249 241 231 221 215 211 210 210 209 207 204 201 201 204 209 213
130 124 119 116 113 108 102 95 88 80 73 68 62 56 49 44 41 39 39 39 37 37 37 38 36 32 28 27 22 13 357 339 325 317 317 323 337 352 359 354 336 319 306 293 281 276 275 274 269 258 244 235 229 219 211 207 203 201 200 201 201 201 199 197 196 199 204 210 212
110 106 100 93 86 80 74 68 61 56 50 45 42 39 36 34 34 34 35 34 32 30 27 24 20 17 15 13 5 348 327 305 294 295 321 19 44 48 43 31 350 313 291 265 244 236 233 231 224 214 206 201 199 197 195 195 196 196 197 197 197 195 193 193 196 200 206 210 213
100 92 78 63 51 44 40 39 37 35 33 32 32 33 35 36 37 37 37 35 32 29 25 21 14 10 3 352 334 313 295 282 284 350 44 46 50 54 57 58 62 76 120 172 185 188 189 190 187 184 182 182 185 187 190 193 196 197 197 196 194 194 194 196 199 204 207 211 214
81 59 38 25 19 16 16 16 18 20 24 29 33 36 38 40 41 41 39 37 34 32 30 23 12 359 341 318 300 289 287 311 29 43 41 40 42 47 51 60 81 98 110 121 137 153 164 172 173 171 169 168 171 178 185 192 196 198 199 198 197 198 199 201 203 205 209 212 216
35 19 11 8 6 6 6 8 14 22 28 34 37 39 40 41 42 43 44 43 42 38 33 20 359 337 321 308 316 351 28 40 43 42 41 43 47 53 62 77 95 107 116 126 137 150 158 160 158 155 151 148 149 157 171 183 191 196 197 199 199 200 200 202 204 207 211 215 221
12 10 10 12 13 15 16 21 29 35 39 40 41 40 41 42 45 47 49 46 36 21 4 353 352 3 18 30 44 49 49 48 48 48 50 53 60 72 88 100 109 118 127 138 145 148 145 139 137 135 135 137 145 156 170 181 189 193 196 198 199 200 200 203 207 212 218 226 234
25 30 32 31 32 34 39 45 51 52 52 48 47 48 48 48 46 44 39 20 349 323 321 332 356 18 38 53 57 57 57 57 59 62 66 72 83 99 110 116 123 132 143 149 146 133 119 117 125 132 140 148 158 169 177 185 190 193 196 198 199 201 204 209 217 226 236 246 257
85 70 56 46 42 44 49 57 67 73 74 69 69 72 76 76 66 45 15 336 314 302 303 323 358 31 56 68 71 70 69 73 79 86 92 100 114 124 128 132 139 146 152 150 134 113 108 120 132 143 154 164 173 179 185 189 192 195 197 199 203 209 218 229 240 252 263 274 283
100 76 56 44 43 49 62 75 91 104 113 116 118 123 137 156 171 173 149 2 304 271 260 58 66 71 75 79 83 85 88 96 104 111 117 126 136 141 143 145 150 153 152 140 122 114 120 134 145 157 168 178 183 187 190 193 195 198 202 210 220 233 247 258 268 278 287 295 301
84 67 53 48 57 76 93 104 117 127 135 143 150 155 159 164 163 147 120 101 112 129 120 102 93 91 92 94 98 100 105 113 122 128 134 142 149 151 151 151 152 151 143 131 122 126 135 147 155 165 175 185 190 193 196 200 205 213 227 243 256 265 273 281 290 297 303 307 310
75 71 72 87 108 116 119 123 131 136 141 147 154 160 162 161 144 126 114 113 112 113 110 107 103 101 102 105 108 113 119 129 136 141 144 148 153 156 153 147 143 138 133 128 128 135 145 156 164 172 181 189 196 203 213 225 242 257 265 271 276 283 291 298 304 309 311 311 307
87 97 124 148 149 139 132 132 136 138 138 139 141 144 147 145 136 126 121 120 120 118 116 114 112 111 113 117 122 128 135 142 147 148 145 144 145 146 142 134 130 131 131 131 131 138 150 163 177 186 197 209 224 245 264 273 277 278 282 286 292 298 304 309 311 311 307 300 291
118 135 152 161 159 150 142 139 140 141 141 136 130 128 129 132 132 130 126 123 120 122 124 125 125 126 129 133 137 141 144 147 146 142 134 126 124 125 127 124 126 129 131 128 128 132 147 174 205 233 256 269 277 282 283 284 286 289 294 301 306 309 311 309 306 299 291 283 278
144 156 164 168 167 163 155 150 152 157 156 147 135 130 131 133 132 127 120 114 111 114 121 128 132 134 137 139 140 140 140 137 133 126 120 115 116 120 123 120 119 120 120 116 110 108 99 292 289 291 289 289 287 286 287 290 297 302 307 311 313 313 308 302 293 286 282 281 281
Height
1469 1470 1471 1472 1473 1473 1474 1474 1475 1475 1476 1477 1478 1478 1478 1479 1479 1479 1479 1479 1480 1480 1481 1481 1481 1481 1481 1481 1481 1482 1482 1483 1483 1483 1484 1484 1484 1483 1483 1483 1482 1482 1483 1483 1482 1482 1482 1482 1483 1483 1483 1483 1483 1483 1484 1484 1484 1484 1484 1484 1483 1483 1484 1485 1486 1488 1489 1490 1491
1468 1468 1469 1470 1471 1472 1472 1473 1473 1474 1474 1475 1475 1476 1477 1477 1477 1477 1478 1478 1478 1478 1479 1479 1479 1479 1479 1479 1479 1480 1480 1480 1481 1482 1483 1483 1482 1481 1481 1481 1481 1480 1480 1480 1480 1480 1480 1481 1481 1481 1481 1481 1482 1482 1482 1482 1482 1482 1483 1483 1483 1483 1483 1483 1484 1485 1486 1487 1488
1466 1467 1468 1468 1469 1470 1470 1471 1472 1472 1473 1473 1473 1474 1475 1475 1475 1476 1476 1476 1477 1477 1477 1477 1477 1478 1478 1478 1478 1478 1478 1478 1479 1480 1480 1480 1479 1479 1479 1479 1479 1478 1478 1478 1479 1479 1479 1479 1479 1479 1479 1479 1481 1481 1481 1481 1481 1481 1481 1481 1482 1482 1482 1482 1483 1483 1484 1484 1485
1465 1465 1466 1466 1467 1468 1468 1469 1470 1471 1471 1472 1472 1472 1473 1473 1473 1474 1474 1474 1475 1475 1475 1475 1475 1476 1476 1476 1476 1476 1476 1476 1477 1477 1477 1477 1477 1477 1477 1477 1477 1477 1477 1477 1477 1477 1477 1477 1477 1477 1477 1478 1480 1480 1480 1479 1480 1479 1479 1480 1480 1480 1480 1481 1481 1481 1482 1482 1482
1463 1464 1464 1464 1465 1466 1467 1468 1468 1469 1470 1471 1471 1471 1471 1472 1472 1472 1473 1473 1473 1473 1474 1474 1474 1474 1474 1474 1474 1474 1474 1474 1474 1474 1474 1474 1475 1475 1475 1475 1475 1475 1475 1476 1475 1475 1475 1475 1475 1475 1476 1477 1478 1478 1478 1478 1478 1478 1478 1478 1478 1479 1479 1479 1479 1479 1479 1479 1480
1462 1462 1463 1463 1463 1464 1464 1465 1466 1468 1468 1469 1469 1470 1470 1470 1470 1471 1471 1472 1472 1472 1473 1473 1473 1473 1473 1473 1473 1472 1472 1472 1472 1472 1472 1473 1473 1473 1474 1474 1474 1474 1473 1473 1473 1473 1473 1473 1473 1473 1474 1475 1476 1476 1477 1477 1477 1477 1477 1477 1477 1477 1477 1477 1477 1477 1477 1477 1478
1461 1461 1461 1462 1462 1462 1463 1463 1464 1465 1466 1467 1468 1468 1469 1469 1469 1469 1470 1470 1471 1471 1471 1471 1471 1471 1471 1471 1470 1470 1470 1470 1470 1470 1470 1471 1472 1472 1473 1473 1472 1472 1472 1471 1471 1471 1471 1471 1471 1471 1472 1473 1473 1474 1475 1475 1475 1475 1475 1475 1475 1475 1475 1475 1475 1475 1475 1476 1476
1460 1460 1460 1460 1461 1461 1461 1462 1462 1463 1464 1465 1466 1467 1468 1468 1468 1468 1469 1469 1469 1469 1469 1469 1469 1469 1468 1468 1468 1468 1468 1469 1469 1469 1469 1470 1470 1470 1470 1470 1470 1470 1470 1470 1470 1469 1469 1469 1469 1469 1469 1470 1471 1472 1473 1473 1473 1473 1473 1473 1473 1473 1473 1473 1473 1473 1473 1474 1474
1458 1458 1458 1459 1459 1459 1460 1460 1461 1461 1462 1463 1464 1465 1466 1467 1467 1467 1467 1467 1467 1467 1467 1466 1466 1467 1467 1467 1467 1467 1467 1467 1468 1468 1468 1468 1468 1468 1468 1468 1468 1468 1468 1468 1468 1468 1468 1468 1468 1468 1468 1468 1469 1470 1471 1471 1471 1471 1471 1471 1471 1471 1471 1471 1471 1471 1472 1472 1472
1457 1457 1457 1458 1458 1458 1458 1459 1459 1460 1460 1461 1462 1463 1464 1465 1465 1465 1465 1464 1464 1464 1464 1464 1464 1465 1465 1465 1465 1466 1466 1466 1467 1467 1467 1467 1467 1467 1467 1467 1467 1467 1467 1467 1467 1466 1466 1466 1466 1466 1466 1466 1467 1468 1468 1469 1469 1469 1469 1469 1469 1469 1469 1469 1469 1469 1469 1470 1470
1455 1456 1456 1456 1456 1457 1457 1458 1458 1458 1459 1459 1460 1462 1463 1463 1463 1462 1462 1461 1462 1462 1462 1462 1462 1463 1463 1463 1464 1464 1465 1466 1466 1466 1465 1465 1465 1465 1465 1465 1466 1466 1465 1465 1465 1465 1465 1465 1465 1465 1465 1465 1465 1466 1466 1467 1467 1467 1467 1467 1467 1467 1467 1467 1467 1468 1468 1468 1468
1454 1454 1454 1455 1455 1455 1456 1457 1457 1457 1458 1458 1459 1460 1461 1459 1459 1459 1459 1460 1460 1460 1460 1460 1460 1461 1461 1462 1463 1463 1464 1464 1464 1464 1464 1464 1464 1464 1464 1464 1464 1464 1464 1464 1464 1464 1464 1463 1464 1464 1464 1463 1464 1464 1464 1465 1465 1466 1465 1465 1464 1464 1465 1465 1465 1466 1466 1467 1467
1453 1453 1453 1453 1454 1454 1455 1455 1456 1457 1458 1458 1458 1457 1457 1456 1457 1458 1458 1458 1458 1458 1458 1458 1459 1459 1460 1461 1462 1462 1462 1462 1462 1462 1463 1463 1463 1463 1463 1463 1463 1463 1463 1463 1463 1463 1463 1463 1463 1463 1463 1462 1462 1463 1463 1463 1463 1463 1463 1463 1463 1463 1463 1463 1464 1464 1465 1465 1466
1451 1452 1452 1452 1453 1453 1454 1455 1455 1456 1456 1455 1455 1454 1455 1455 1456 1456 1457 1457 1457 1457 1457 1457 1458 1458 1459 1460 1460 1460 1460 1461 1461 1461 1461 1462 1462 1462 1462 1462 1462 1462 1462 1461 1461 1461 1462 1462 1462 1462 1462 1461 1461 1461 1461 1462 1462 1462 1462 1462 1462 1461 1461 1462 1463 1463 1463 1464 1465
1451 1451 1451 1451 1452 1453 1453 1454 1454 1453 1453 1453 1453 1453 1454 1454 1455 1455 1455 1455 1455 1455 1456 1456 1457 1458 1458 1458 1458 1459 1459 1459 1460 1460 1460 1460 1461 1461 1461 1461 1461 1461 1461 1460 1460 1461 1461 1461 1461 1461 1461 1461 1460 1460 1461 1461 1462 1462 1461 1461 1461 1460 1460 1460 1461 1462 1463 1463 1464
1450 1450 1450 1451 1451 1453 1453 1452 1451 1451 1452 1452 1453 1453 1453 1453 1453 1453 1454 1454 1454 1454 1455 1455 1456 1456 1457 1457 1457 1458 1458 1458 1459 1459 1459 1459 1460 1460 1460 1460 1460 1460 1460 1460 1460 1460 1460 1461 1461 1461 1461 1461 1460 1460 1460 1460 1461 1461 1461 1460 1460 1459 1459 1459 1460 1461 1462 1463 1463
1448 1449 1450 1450 1451 1452 1451 1450 1450 1450 1451 1451 1451 1452 1452 1452 1452 1452 1452 1452 1453 1453 1453 1454 1454 1455 1455 1456 1456 1457 1457 1457 1458 1458 1458 1458 1458 1459 1459 1459 1459 1459 1459 1459 1459 1459 1460 1460 1461 1461 1461 1461 1460 1459 1459 1460 1461 1461 1460 1460 1459 1458 1458 1458 1459 1460 1461 1462 1463
1448 1448 1449 1450 1450 1450 1449 1449 1449 1449 1449 1449 1450 1450 1450 1450 1450 1450 1451 1451 1452 1452 1453 1453 1453 1454 1454 1455 1455 1456 1456 1456 1457 1457 1457 1457 1458 1458 1458 1458 1458 1458 1458 1458 1458 1458 1458 1459 1460 1460 1460 1460 1460 1459 1459 1460 1460 1460 1460 1460 1459 1458 1458 1458 1459 1460 1461 1462 1464
1447 1447 1448 1448 1448 1448 1448 1448 1448 1448 1448 1448 1448 1448 1449 1449 1449 1449 1450 1450 1451 1451 1452 1452 1453 1453 1453 1454 1454 1455 1455 1455 1455 1455 1456 1456 1456 1456 1456 1457 1457 1457 1457 1457 1457 1458 1458 1458 1459 1459 1460 1460 1460 1460 1460 1460 1459 1460 1460 1460 1459 1459 1458 1459 1459 1460 1461 1463 1464
1446 1446 1446 1446 1446 1447 1447 1447 1447 1447 1448 1448 1448 1448 1448 1448 1449 1449 1449 1449 1450 1450 1451 1451 1452 1452 1453 1453 1453 1454 1454 1454 1454 1454 1454 1454 1454 1455 1455 1455 1456 1456 1456 1457 1457 1457 1457 1458 1458 1459 1460 1460 1460 1461 1460 1460 1460 1460 1461 1460 1459 1459 1459 1459 1459 1460 1461 1463 1464
1445 1445 1445 1445 1446 1446 1446 1446 1447 1447 1447 1447 1448 1448 1448 1448 1448 1448 1448 1449 1449 1450 1450 1451 1451 1451 1452 1452 1453 1453 1453 1453 1453 1453 1453 1453 1453 1454 1454 1454 1455 1455 1456 1456 1456 1456 1457 1457 1458 1459 1459 1460 1460 1460 1460 1460 1460 1460 1460 1460 1459 1459 1459 1459 1459 1460 1462 1463 1463
1444 1445 1445 1446 1446 1446 1446 1447 1447 1447 1447 1447 1448 1448 1448 1448 1448 1448 1448 1449 1449 1449 1450 1450 1450 1451 1451 1452 1452 1452 1453 1453 1452 1452 1452 1452 1453 1453 1453 1454 1454 1454 1455 1455 1456 1456 1456 1457 1457 1458 1459 1460 1460 1460 1460 1459 1459 1459 1460 1460 1459 1459 1459 1459 1460 1461 1462 1463 1464
1445 1445 1446 1446 1446 1447 1447 1447 1447 1448 1448 1448 1448 1448 1448 1448 1448 1448 1449 1449 1449 1449 1450 1450 1450 1451 1451 1451 1452 1452 1452 1452 1452 1452 1452 1452 1452 1452 1453 1453 1453 1454 1455 1455 1455 1456 1456 1457 1457 1458 1459 1460 1460 1460 1459 1459 1460 1460 1460 1460 1460 1459 1459 1459 1460 1461 1462 1463 1464
1445 1446 1446 1446 1447 1447 1447 1447 1448 1448 1448 1448 1448 1448 1448 1448 1448 1449 1449 1449 1449 1449 1450 1450 1450 1450 1451 1451 1451 1452 1452 1452 1452 1452 1452 1452 1452 1452 1452 1453 1453 1454 1454 1455 1455 1456 1456 1457 1457 1458 1459 1460 1460 1460 1460 1460 1460 1460 1460 1460 1460 1459 1459 1459 1460 1461 1462 1463 1464
1445 1446 1446 1446 1447 1447 1447 1448 1448 1448 1448 1448 1448 1448 1449 1449 1449 1449 1449 1449 1449 1449 1450 1450 1450 1450 1451 1451 1451 1451 1451 1451 1451 1452 1452 1452 1451 1452 1452 1453 1453 1454 1454 1454 1455 1455 1456 1456 1457 1458 1459 1459 1460 1459 1459 1460 1460 1461 1461 1461 1460 1459 1459 1459 1460 1461 1462 1463 1464
1446 1446 1446 1447 1447 1447 1448 1448 1448 1448 1448 1449 1449 1449 1449 1449 1449 1449 1449 1449 1449 1449 1449 1449 1449 1450 1450 1450 1450 1450 1451 1451 1451 1451 1451 1451 1452 1452 1452 1453 1453 1453 1454 1454 1454 1455 1456 1457 1457 1458 1458 1459 1459 1458 1459 1459 1460 1461 1461 1461 1461 1460 1460 1460 1460 1461 1462 1463 1464
1446 1446 1447 1447 1447 1448 1448 1448 1448 1448 1448 1449 1449 1449 1449 1449 1449 1449 1449 1449 1449 1449 1449 1449 1449 1449 1449 1449 1449 1449 1450 1450 1450 1450 1451 1451 1451 1452 1452 1453 1453 1453 1453 1454 1454 1455 1456 1457 1457 1458 1458 1458 1458 1458 1458 1459 1460 1461 1461 1461 1461 1461 1460 1460 1460 1461 1462 1463 1464
1447 1447 1447 1448 1448 1448 1448 1448 1448 1448 1448 1448 1448 1448 1448 1448 1448 1448 1448 1448 1448 1448 1448 1448 1448 1448 1448 1448 1448 1448 1449 1449 1450 1450 1451 1451 1451 1451 1452 1453 1453 1453 1453 1453 1454 1454 1455 1457 1457 1457 1458 1458 1458 1458 1458 1458 1459 1460 1461 1461 1461 1461 1461 1461 1461 1461 1462 1463 1464
1447 1448 1448 1448 1448 1448 1448 1448 1448 1448 1448 1448 1448 1448 1448 1448 1448 1448 1448 1448 1448 1448 1448 1448 1448 1448 1448 1448 1448 1448 1449 1449 1450 1450 1450 1451 1451 1451 1452 1452 1453 1453 1453 1453 1454 1454 1455 1456 1457 1457 1457 1458 1458 1458 1458 1459 1459 1460 1461 1461 1461 1461 1461 1461 1461 1462 1463 1463 1464
1447 1448 1448 1448 1448 1448 1448 1448 1448 1448 1448 1448 1448 1448 1448 1448 1448 1448 1448 1448 1448 1448 1448 1448 1448 1448 1448 1448 1448 1448 1449 1449 1450 1450 1450 1450 1451 1451 1452 1452 1453 1453 1453 1453 1454 1454 1455 1455 1456 1457 1457 1458 1458 1458 1459 1459 1460 1460 1461 1461 1461 1461 1461 1461 1462 1462 1463 1464 1465
1448 1448 1448 1448 1448 1448 1448 1448 1448 1448 1448 1448 1448 1448 1448 1448 1448 1448 1448 1448 1448 1448 1448 1448 1448 1448 1448 1448 1448 1448 1449 1449 1450 1450 1450 1451 1451 1451 1452 1452 1453 1453 1453 1453 1454 1454 1455 1456 1456 1457 1458 1458 1458 1458 1459 1459 1460 1460 1461 1461 1461 1462 1462 1462 1462 1463 1463 1464 1465
1447 1447 1448 1448 1448 1448 1448 1448 1448 1448 1448 1448 1448 1448 1448 1448 1448 1448 1448 1448 1448 1448 1448 1448 1448 1448 1448 1448 1448 1448 1449 1449 1450 1450 1451 1451 1451 1451 1452 1452 1453 1453 1454 1454 1454 1455 1456 1456 1457 1458 1458 1458 1458 1459 1459 1460 1460 1461 1461 1461 1462 1462 1462 1463 1463 1463 1464 1465 1465
1448 1448 1448 1448 1448 1448 1448 1448 1448 1448 1448 1448 1448 1448 1448 1448 1448 1448 1448 1448 1448 1448 1448 1448 1448 1448 1448 1448 1448 1449 1449 1450 1450 1451 1451 1452 1452 1452 1453 1453 1454 1454 1455 1455 1455 1456 1457 1457 1458 1458 1458 1459 1459 1459 1460 1460 1461 1461 1461 1462 1462 1462 1463 1463 1463 1464 1464 1465 1465
1448 1448 1448 1448 1448 1448 1448 1448 1448 1448 1448 1448 1448 1448 1448 1448 1448 1448 1448 1448 1448 1448 1448 1448 1448 1448 1448 1449 1449 1449 1450 1450 1451 1451 1452 1452 1453 1453 1454 1454 1455 1455 1456 1456 1457 1457 1458 1458 1458 1459 1459 1459 1460 1460 1460 1461 1461 1462 1462 1462 1463 1463 1463 1463 1464 1464 1464 1465 1465
1448 1448 1448 1448 1448 1448 1448 1448 1448 1448 1448 1448 1448 1448 1448 1448 1448 1448 1448 1448 1448 1448 1448 1448 1448 1449 1449 1449 1450 1450 1450 1451 1451 1452 1452 1453 1453 1454 1454 1455 1456 1456 1457 1457 1458 1458 1459 1459 1459 1460 1460 1460 1460 1460 1461 1461 1462 1462 1463 1463 1463 1463 1463 1464 1464 1464 1464 1464 1464
1448 1448 1448 1448 1448 1448 1448 1448 1448 1448 1448 1448 1448 1448 1448 1448 1448 1448 1448 1448 1448 1448 1448 1449 1449 1449 1449 1450 1450 1451 1451 1451 1452 1452 1453 1453 1454 1454 1455 1456 1456 1457 1458 1458 1459 1459 1460 1460 1460 1460 1461 1461 1461 1461 1462 1462 1462 1463 1463 1463 1463 1463 1464 1464 1464 1464 1464 1464 1464
1448 1448 1448 1448 1448 1448 1448 1448 1448 1448 1448 1448 1448 1448 1448 1448 1448 1448 1448 1448 1448 1448 1448 1449 1449 1450 1450 1450 1451 1451 1452 1452 1452 1453 1453 1454 1454 1455 1455 1456 1457 1458 1458 1459 1460 1460 1460 1461 1461 1461 1462 1462 1462 1462 1463 1463 1463 1463 1463 1463 1463 1463 1463 1463 1463 1463 1463 1463 1463
1447 1448 1448 1448 1448 1448 1448 1448 1448 1448 1448 1448 1448 1448 1448 1448 1448 1448 1448 1448 1448 1449 1449 1449 1450 1450 1451 1451 1452 1452 1453 1453 1453 1453 1453 1454 1455 1456 1457 1457 1458 1459 1460 1460 1461 1461 1461 1462 1462 1462 1462 1462 1463 1463 1463 1463 1463 1463 1463 1463 1463 1463 1463 1463 1463 1463 1463 1463 1463
1448 1448 1448 1448 1448 1448 1448 1448 1448 1448 1448 1448 1448 1448 1448 1448 1448 1448 1448 1449 1449 1449 1449 1450 1450 1451 1451 1452 1453 1453 1453 1453 1453 1453 1454 1455 1456 1457 1458 1459 1460 1460 1461 1461 1461 1462 1462 1462 1463 1463 1463 1463 1463 1463 1463 1463 1463 1463 1463 1463 1463 1463 1463 1462 1462 1462 1462 1462 1462
1448 1448 1448 1448 1448 1448 1448 1448 1448 1448 1448 1448 1448 1448 1448 1448 1448 1449 1449 1449 1449 1450 1450 1450 1451 1451 1452 1452 1453 1453 1453 1454 1454 1455 1456 1457 1458 1459 1460 1460 1461 1461 1462 1462 1462 1463 1463 1463 1463 1463 1463 1463 1463 1463 1463 1463 1463 1463 1463 1463 1463 1462 1462 1462 1462 1462 1462 1462 1462
1448 1448 1448 1448 1448 1448 1448 1448 1448 1448 1448 1448 1448 1449 1449 1449 1449 1449 1449 1450 1450 1450 1451 1451 1452 1452 1453 1453 1453 1454 1454 1455 1456 1457 1458 1458 1459 1460 1461 1461 1462 1462 1462 1463 1463 1463 1463 1463 1463 1463 1463 1463 1464 1464 1463 1463 1463 1463 1463 1462 1462 1462 1462 1462 1462 1462 1462 1462 1462